This is the latest recevied weather packets stored in our database for station/object WB5HZM-3. If no packets are shown the sender has not sent any weather packets the latest 10 day(s).
| Time | Temp. | Humidity | Pressure | Rain* | Wind** | Luminosity | Snow |
|---|---|---|---|---|---|---|---|
| 1777765395 | 23.33° C | 53% | 1019.4 hPa | 0 mm | - | - | - |
| 1777764814 | 23.33° C | 50% | 1019.4 hPa | 0 mm | - | - | - |
| 1777764207 | 23.33° C | 50% | 1019.5 hPa | 0 mm | - | - | - |
| 1777763601 | 23.33° C | 48% | 1019.4 hPa | 0 mm | - | - | - |
| 1777763001 | 23.33° C | 50% | 1019.4 hPa | 0 mm | - | - | - |
| 1777762397 | 23.33° C | 49% | 1019.4 hPa | 0 mm | - | - | - |
| 1777761813 | 23.33° C | 49% | 1019.5 hPa | 0 mm | - | - | - |
| 1777761209 | 23.33° C | 49% | 1019.5 hPa | 0 mm | - | - | - |
| 1777760609 | 23.33° C | 48% | 1019.6 hPa | 0 mm | - | - | - |
| 1777760004 | 23.33° C | 48% | 1019.5 hPa | 0 mm | - | - | - |
| 1777759399 | 23.33° C | 52% | 1019.5 hPa | 0 mm | - | - | - |
| 1777758799 | 23.33° C | 50% | 1019.5 hPa | 0 mm | - | - | - |
| 1777758195 | 22.78° C | 52% | 1019.5 hPa | 0 mm | - | - | - |
| 1777757610 | 22.78° C | 49% | 1019.6 hPa | 0 mm | - | - | - |
| 1777757005 | 22.78° C | 49% | 1019.6 hPa | 0 mm | - | - | - |
| 1777756402 | 23.33° C | 51% | 1019.8 hPa | 0 mm | - | - | - |
| 1777755797 | 22.78° C | 51% | 1019.8 hPa | 0 mm | - | - | - |
| 1777755212 | 22.78° C | 53% | 1019.9 hPa | 0 mm | - | - | - |
| 1777754613 | 22.22° C | 50% | 1020 hPa | 0 mm | - | - | - |
| 1777754008 | 22.22° C | 53% | 1020 hPa | 0 mm | - | - | - |
| 1777753404 | 22.22° C | 51% | 1020.1 hPa | 0 mm | - | - | - |
| 1777752803 | 21.67° C | 52% | 1020.2 hPa | 0 mm | - | - | - |
| 1777752200 | 21.67° C | 51% | 1020.3 hPa | 0 mm | - | - | - |
| 1777751596 | 21.67° C | 51% | 1020.4 hPa | 0 mm | - | - | - |
| 1777751012 | 21.11° C | 55% | 1020.7 hPa | 0 mm | - | - | - |
* Rain latest hour (hover to see other rain measurements)
** Current wind speed in m/s (hover to see current wind gust speed)